Regional Weather Roundup
Issued by NWS Burlington, VT

Home | Current Version | Previous Version | Text Only | Print | Product List | Glossary On
Versions: 1 2 3 4 5 6 7 8 9 10 11 12 13 14 15 16 17 18 19 20 21 22 23 24 25 26 27 28 29 30 31 32 33 34 35 36 37 38 39 40 41 42 43 44 45 46 47 48 49 50
000
ASUS41 KBTV 310910
RWRBTV
VERMONT REGIONAL WEATHER ROUNDUP
NATIONAL WEATHER SERVICE BURLINGTON VT
500 AM EDT FRI JUL 31 2015

NOTE: "FAIR" INDICATES FEW OR NO CLOUDS BELOW 12,000 FEET WITH NO
SIGNIFICANT WEATHER AND/OR OBSTRUCTIONS TO VISIBILITY.

* THESE REPORTS ARE NOT UNDER NWS QUALITY CONTROL AND/OR DO NOT
  REPORT WEATHER SUCH AS PRECIPITATION AND FOG.

VTZ001>019-311000-
_____VERMONT_____


CITY           SKY/WX    TMP DP  RH WIND       PRES   REMARKS
BURLINGTON     MOCLDY    67  57  70 S5        29.75S
MONTPELIER     CLEAR     60  57  89 CALM      29.81S
MORRISVILLE    CLEAR     61  56  83 CALM      29.77S
ST. JOHNSBURY*   N/A     62  60  93 MISG      29.74F
LYNDONVILLE*   FOG       60  59  97 CALM      29.79R VSB 1/2
MIDDLEBURY*    MOCLDY    62  62  99 CALM      29.78S
SPRINGFIELD    FOG       59  59 100 CALM      29.80S VSB 1/4
HIGHGATE*      FAIR      70  55  58 SW6       29.73S
NEWPORT*       FAIR      61  57  87 SW5       29.75S
BENNINGTON     MOCLDY    59  58  96 CALM      29.83S

_____LAKE CHAMPLAIN_____


CITY           SKY/WX    TMP DP  RH WIND       PRES   REMARKS

$$

NYZ007-026>031-035-052-083-311000-
_____NORTHERN NEW YORK_____


CITY           SKY/WX    TMP DP  RH WIND       PRES   REMARKS
PLATTSBURGH    CLEAR     61  58  90 S3        29.73S
SARANAC LAKE   CLEAR     57  54  89 W3        29.79S
MASSENA        CLEAR     61  55  81 SW6       29.74S
OGDENSBURG*    CLEAR     64  57  77 W6        29.77R
POTSDAM*       CLEAR     63  61  94 SW7       29.77R
WATERTOWN      CLEAR     67  58  72 W8        29.81R
FT DRUM        CLEAR     66  59  78 VRB7      29.81R
ALBANY         PTCLDY    68  59  73 W8        29.81S
GLENS FALLS    PTCLDY    58  56  93 CALM      29.79S FOG

$$
NHZ002-005-011-311000-
_____NEW HAMPSHIRE_____


CITY           SKY/WX    TMP DP  RH WIND       PRES   REMARKS
LEBANON        PTCLDY    60  57  89 S3        29.78S
KEENE          CLOUDY    61  55  82 CALM      29.81S VSB 3/4
MT WASHINGTON  FOG       46  46 100 W59         N/A  VSB 1/8
PLYMOUTH       FOG       62  62 100 CALM      29.77S VSB 1/2
WHITEFIELD     CLEAR     58  56  93 CALM      29.77F FOG

$$

_____REGIONAL QUEBEC LOCATIONS_____


CITY           SKY/WX    TMP DP  RH WIND       PRES   REMARKS
MONTREAL       PTCLDY    68  55  64 SW15G21   29.69S
QUEBEC CITY    PTCLDY    64  63  94 SW6       29.63R
SHERBROOKE     MOCLDY    64  59  82 SW6       29.71S

_____REGIONAL ONTARIO LOCATIONS_____


CITY           SKY/WX    TMP DP  RH WIND       PRES   REMARKS
OTTAWA         MOCLDY    66  55  68 W10       29.74R

______KEY______
VSB  - VISIBILITY IN MILES
WCI  - WIND CHILL INDEX
HX   - HEAT INDEX
$$
NNNN



USA.gov is the U.S. government's official web portal to all federal, state and local government web resources and services.